EW4321 Beach Haven NJ US current weather conditions

sailwx.info

Wind from 195 at 8 knots gusting 13

Air temperature 10.0° C
Dewpoint 9.7° C

Last reported at 2019-Dec-09 17:06 UTC.
Time now 2019-Dec-09 17:47 UTC

Location: N 39°33' W 074°15'.
View on Google Maps.

See reports from other nearby stations

  
Tides and Currents Weather Stations Pressure Air Temp Water Temp Dewpoint Dewpoint Depression Visibility Wind Speed Wind Dir Waves Ship Positions
date/time (UTC)wind fromknots sea level pressurealtimeterstation pressurevisibilityair tempwater tempwave heightnotes
2019-Dec-09 17:06 195 8 gusting 13 10.0
2019-Dec-09 17:01 192 9 gusting 13 10.0
2019-Dec-09 16:56 190 9 gusting 13 10.0
2019-Dec-09 16:51 191 8 gusting 13 10.0
2019-Dec-09 16:46 179 8 gusting 13 10.0
2019-Dec-09 16:41 184 8 gusting 13 10.0
2019-Dec-09 16:36 187 8 gusting 13 10.0
2019-Dec-09 16:31 189 9 gusting 13 10.0
2019-Dec-09 16:26 193 8 gusting 13 10.0
2019-Dec-09 16:21 191 8 gusting 13 10.0
2019-Dec-09 16:16 187 7 gusting 13 10.6
2019-Dec-09 16:11 189 7 gusting 13 10.6
2019-Dec-09 16:06 190 7 gusting 13 10.6
2019-Dec-09 16:01 187 9 gusting 13 10.0
2019-Dec-09 15:56 184 9 gusting 13 10.6
2019-Dec-09 15:51 190 8 gusting 11 11.1
2019-Dec-09 15:46 185 7 gusting 11 11.7
2019-Dec-09 15:41 205 6 gusting 13 12.2
2019-Dec-09 15:36 217 8 gusting 15 12.2
2019-Dec-09 15:31 214 9 gusting 18 12.2
2019-Dec-09 15:26 208 10 gusting 18 12.2
2019-Dec-09 15:21 215 9 gusting 18 12.2
2019-Dec-09 15:16 216 11 gusting 18 12.2
2019-Dec-09 15:11 220 10 gusting 16 11.7
2019-Dec-09 15:06 214 11 gusting 16 11.1
2019-Dec-09 15:01 211 10 gusting 17 11.1
2019-Dec-09 14:56 202 10 gusting 18 11.1
2019-Dec-09 14:51 196 10 gusting 18 11.1
2019-Dec-09 14:46 199 10 gusting 16 11.1
2019-Dec-09 14:41 194 11 gusting 17 11.1
2019-Dec-09 14:36 199 11 gusting 18 11.1
2019-Dec-09 14:31 197 11 gusting 19 11.1
2019-Dec-09 14:26 198 12 gusting 19 11.1
2019-Dec-09 14:21 190 12 gusting 18 11.1
2019-Dec-09 14:11 189 12 gusting 18 11.1
2019-Dec-09 14:06 189 10 gusting 17 11.1
2019-Dec-09 14:01 183 13 gusting 17 11.1
2019-Dec-09 13:56 183 11 gusting 16 10.6
2019-Dec-09 13:51 176 10 gusting 14 10.6
2019-Dec-09 13:46 175 9 gusting 13 10.6
2019-Dec-09 13:41 178 6 gusting 11 10.6
2019-Dec-09 13:36 179 7 gusting 11 10.6
2019-Dec-09 13:31 190 7 gusting 12 11.1
2019-Dec-09 13:26 194 8 gusting 12 11.1
2019-Dec-09 13:21 193 8 gusting 12 11.7
2019-Dec-09 13:16 191 6 gusting 13 11.7
2019-Dec-09 13:11 210 7 gusting 14 11.7
2019-Dec-09 13:06 221 8 gusting 20 11.7
2019-Dec-09 13:01 190 10 gusting 20 11.7
2019-Dec-09 12:56 226 6 gusting 13 10.6
2019-Dec-09 12:51 226 7 gusting 11 10.6
2019-Dec-09 12:46 215 6 gusting 13 11.1
2019-Dec-09 12:41 177 8 gusting 16 11.1
2019-Dec-09 12:36 172 10 gusting 16 11.1
2019-Dec-09 12:31 170 11 gusting 18 11.1
2019-Dec-09 12:26 161 12 gusting 18 11.1
2019-Dec-09 12:21 157 11 gusting 17 11.1
2019-Dec-09 12:16 161 11 gusting 16 11.1
2019-Dec-09 12:11 161 13 gusting 16 11.1
2019-Dec-09 12:06 152 12 gusting 16 11.1
2019-Dec-09 12:01 152 11 gusting 15 10.6
2019-Dec-09 11:56 150 7 gusting 11 10.6
2019-Dec-09 11:51 133 6 gusting 13 10.6
2019-Dec-09 11:46 125 7 gusting 13 10.6
2019-Dec-09 11:41 125 9 gusting 13 11.1
2019-Dec-09 11:36 123 8 gusting 11 11.1
2019-Dec-09 11:31 119 7 gusting 10 10.6
2019-Dec-09 11:26 068 2 gusting 6 10.6
2019-Dec-09 11:21 046 2 gusting 5 10.6
2019-Dec-09 11:16 065 2 gusting 5 10.6
2019-Dec-09 11:11 093 3 gusting 6 10.6
2019-Dec-09 11:06 135 2 gusting 6 10.6
2019-Dec-09 11:01 093 3 gusting 6 10.6
2019-Dec-09 10:56 080 3 gusting 4 10.6
2019-Dec-09 10:51 083 1 gusting 4 10.0
2019-Dec-09 10:46 076 2 gusting 4 10.0
2019-Dec-09 10:41 059 0 gusting 6 10.0
2019-Dec-09 10:36 068 0 gusting 6 10.0
2019-Dec-09 10:31 065 4 gusting 6 10.0
2019-Dec-09 10:26 082 4 gusting 6 10.0
2019-Dec-09 10:21 081 4 gusting 9 9.4
2019-Dec-09 10:16 089 6 gusting 9 9.4
2019-Dec-09 10:11 083 6 gusting 8 9.4
2019-Dec-09 10:06 071 6 gusting 8 8.9
2019-Dec-09 10:01 059 5 gusting 8 8.9
2019-Dec-09 09:56 052 5 gusting 8 8.9
2019-Dec-09 09:51 056 6 gusting 8 8.9
2019-Dec-09 09:46 052 5 gusting 7 8.9
2019-Dec-09 09:41 054 4 gusting 7 8.9
2019-Dec-09 09:36 051 4 gusting 6 8.3
2019-Dec-09 09:31 048 3 gusting 4 8.3
2019-Dec-09 09:26 053 2 gusting 4 8.3
2019-Dec-09 09:21 051 3 gusting 4 8.3
2019-Dec-09 09:16 048 1 gusting 2 8.3
2019-Dec-09 09:11 044 1 gusting 3 8.3
2019-Dec-09 09:06 041 1 gusting 3 8.3
2019-Dec-09 09:01 036 2 gusting 3 8.3
2019-Dec-09 08:56 034 2 gusting 3 8.3
2019-Dec-09 08:51 032 2 gusting 3 8.3
2019-Dec-09 08:46 030 2 gusting 3 8.3
2019-Dec-09 08:41 024 1 gusting 3 8.3
2019-Dec-09 08:36 025 2 gusting 4 7.8
2019-Dec-09 08:31 024 2 gusting 4 7.8
2019-Dec-09 08:26 015 3 gusting 4 7.8
2019-Dec-09 08:21 019 2 gusting 4 7.8
2019-Dec-09 08:16 010 2 gusting 3 7.8
2019-Dec-09 08:11 002 2 gusting 3 7.8
2019-Dec-09 08:06 359 2 gusting 3 7.8
2019-Dec-09 08:01 353 2 gusting 3 7.8
2019-Dec-09 07:56 337 2 gusting 4 7.8
2019-Dec-09 07:51 325 2 gusting 4 7.8
2019-Dec-09 07:46 318 2 gusting 3 7.2
2019-Dec-09 07:41 308 3 gusting 3 7.2
2019-Dec-09 07:36 313 2 gusting 3 7.2
2019-Dec-09 07:31 304 2 gusting 3 7.2
2019-Dec-09 07:26 305 2 gusting 3 7.2
2019-Dec-09 07:21 313 1 gusting 4 7.2
2019-Dec-09 07:16 311 2 gusting 4 7.2
2019-Dec-09 07:11 298 3 gusting 5 7.2
2019-Dec-09 07:06 289 2 gusting 5 7.8
2019-Dec-09 07:01 280 3 gusting 5 7.8
2019-Dec-09 06:56 263 2 gusting 3 7.8
2019-Dec-09 06:51 255 1 gusting 6 7.8
2019-Dec-09 06:46 274 2 gusting 6 7.8
2019-Dec-09 06:41 285 6 gusting 7 8.3
2019-Dec-09 06:36 200 4 gusting 7 9.4
2019-Dec-09 06:31 197 3 gusting 5 9.4
2019-Dec-09 06:26 185 2 gusting 5 8.9
2019-Dec-09 06:21 179 2 gusting 5 9.4
2019-Dec-09 06:16 174 2 gusting 6 8.9
2019-Dec-09 06:11 164 3 gusting 6 8.9
2019-Dec-09 06:06 161 4 gusting 7 9.4
2019-Dec-09 06:01 155 4 gusting 8 8.9
2019-Dec-09 05:56 151 6 gusting 8 8.9
2019-Dec-09 05:51 150 5 gusting 7 8.9
2019-Dec-09 05:46 169 4 gusting 6 8.9
2019-Dec-09 05:41 171 3 gusting 6 8.9
2019-Dec-09 05:36 177 4 gusting 6 8.9
2019-Dec-09 05:31 172 4 gusting 6 8.9
2019-Dec-09 05:26 165 5 gusting 7 8.9
2019-Dec-09 05:21 168 4 gusting 7 8.9
2019-Dec-09 05:16 167 5 gusting 7 8.9
2019-Dec-09 05:11 164 4 gusting 7 8.3
2019-Dec-09 05:06 165 4 gusting 7 8.3
2019-Dec-09 05:01 162 4 gusting 6 8.3
2019-Dec-09 04:56 161 4 gusting 6 8.3
2019-Dec-09 04:51 160 3 gusting 6 8.3
2019-Dec-09 04:46 164 4 gusting 6 8.3
2019-Dec-09 04:41 163 4 gusting 8 8.3
2019-Dec-09 04:36 161 5 gusting 8 8.3
2019-Dec-09 04:31 161 4 gusting 7 8.3
2019-Dec-09 04:26 167 4 gusting 7 8.3
2019-Dec-09 04:21 163 4 gusting 7 8.3
2019-Dec-09 04:16 164 5 gusting 7 8.3
2019-Dec-09 04:11 170 5 gusting 6 8.3
2019-Dec-09 04:06 173 5 gusting 7 8.3
2019-Dec-09 04:01 174 5 gusting 7 8.3
2019-Dec-09 03:56 171 5 gusting 7 8.3
2019-Dec-09 03:51 164 5 gusting 7 8.3
2019-Dec-09 03:46 163 6 gusting 8 8.3
2019-Dec-09 03:41 169 5 gusting 11 8.3
2019-Dec-09 03:36 162 6 gusting 11 8.3
2019-Dec-09 03:31 163 7 gusting 10 8.3
2019-Dec-09 03:26 161 6 gusting 8 8.3
2019-Dec-09 03:21 160 6 gusting 8 8.3
2019-Dec-09 03:16 162 4 gusting 8 8.3
2019-Dec-09 03:11 162 6 gusting 7 8.3
2019-Dec-09 03:06 160 5 gusting 7 8.3
2019-Dec-09 03:01 167 5 gusting 7 8.3
2019-Dec-09 02:56 170 5 gusting 7 7.8
2019-Dec-09 02:51 175 4 gusting 6 7.8
2019-Dec-09 02:46 172 4 gusting 6 7.8
2019-Dec-09 02:41 169 3 gusting 5 7.8
2019-Dec-09 02:36 176 3 gusting 6 7.8
2019-Dec-09 02:31 168 3 gusting 6 7.8
2019-Dec-09 02:26 159 4 gusting 5 7.8
2019-Dec-09 02:21 168 1 gusting 3 7.8
2019-Dec-09 02:16 187 1 gusting 3 7.2
2019-Dec-09 02:11 197 1 gusting 3 7.8
2019-Dec-09 02:06 183 2 gusting 4 7.8
2019-Dec-09 02:01 179 2 gusting 5 7.8
2019-Dec-09 01:56 174 3 gusting 5 7.8
2019-Dec-09 01:51 169 4 gusting 6 7.8
2019-Dec-09 01:46 160 4 gusting 6 7.8
2019-Dec-09 01:41 162 4 gusting 6 7.8
2019-Dec-09 01:36 162 5 gusting 8 7.8
2019-Dec-09 01:31 162 5 gusting 9 7.8
2019-Dec-09 01:26 165 6 gusting 9 7.8
2019-Dec-09 01:21 162 5 gusting 9 7.8
2019-Dec-09 01:16 168 6 gusting 9 7.8
2019-Dec-09 01:11 165 6 gusting 9 7.8
2019-Dec-09 01:06 165 6 gusting 10 7.8
2019-Dec-09 01:01 168 6 gusting 10 7.8
2019-Dec-09 00:56 168 7 gusting 10 7.8
2019-Dec-09 00:51 166 7 gusting 11 7.8
2019-Dec-09 00:46 172 7 gusting 12 7.8
2019-Dec-09 00:41 169 8 gusting 12 7.8
2019-Dec-09 00:36 171 8 gusting 12 7.8
2019-Dec-09 00:31 172 8 gusting 12 7.8
2019-Dec-09 00:26 174 8 gusting 12 7.8
2019-Dec-09 00:21 172 8 gusting 12 7.8
2019-Dec-09 00:16 168 8 gusting 12 7.8
2019-Dec-09 00:11 172 7 gusting 13 7.8
2019-Dec-09 00:06 173 9 gusting 13 7.8
2019-Dec-09 00:01 174 9 gusting 13 7.8
2019-Dec-08 23:56 169 8 gusting 13 7.8
2019-Dec-08 23:51 171 8 gusting 13 7.8
2019-Dec-08 23:46 172 8 gusting 13 7.8
2019-Dec-08 23:41 173 9 gusting 13 7.2
2019-Dec-08 23:36 172 7 gusting 13 7.2
2019-Dec-08 23:31 171 8 gusting 13 7.2
2019-Dec-08 23:26 170 8 gusting 15 7.2
2019-Dec-08 23:21 173 9 gusting 15 7.2
2019-Dec-08 23:16 171 9 gusting 13 7.2
2019-Dec-08 23:11 169 8 gusting 13 7.2
2019-Dec-08 23:06 165 6 gusting 11 7.2
2019-Dec-08 23:01 164 6 gusting 11 7.2
2019-Dec-08 22:56 162 6 gusting 11 7.2
2019-Dec-08 22:51 168 6 gusting 11 7.2
2019-Dec-08 22:46 175 7 gusting 11 7.2
2019-Dec-08 22:41 170 6 gusting 13 7.2
2019-Dec-08 22:36 173 7 gusting 13 7.2
2019-Dec-08 22:31 172 6 gusting 11 7.2
2019-Dec-08 22:26 167 6 gusting 12 7.2
2019-Dec-08 22:21 162 8 gusting 12 7.2
2019-Dec-08 22:16 169 7 gusting 11 7.2
2019-Dec-08 22:11 171 7 gusting 11 6.7
2019-Dec-08 22:06 167 6 gusting 13 6.7
2019-Dec-08 22:01 168 7 gusting 13 6.7
2019-Dec-08 21:56 172 6 gusting 13 7.2
2019-Dec-08 21:51 170 7 gusting 13 6.7
2019-Dec-08 21:46 173 7 gusting 12 6.7
2019-Dec-08 21:41 165 7 gusting 12 6.7
2019-Dec-08 21:36 168 6 gusting 10 6.7
2019-Dec-08 21:31 175 6 gusting 12 6.7
2019-Dec-08 21:26 173 7 gusting 13 6.7
2019-Dec-08 21:21 173 6 gusting 13 6.7
2019-Dec-08 21:16 174 9 gusting 13 6.7
2019-Dec-08 21:11 169 8 gusting 13 6.7
2019-Dec-08 21:06 169 9 gusting 13 6.7
2019-Dec-08 21:01 170 6 gusting 11 6.7
2019-Dec-08 20:56 168 6 gusting 13 6.7
2019-Dec-08 20:51 163 8 gusting 13 6.7
2019-Dec-08 20:46 165 6 gusting 11 6.7
2019-Dec-08 20:41 172 6 gusting 11 6.7
2019-Dec-08 20:36 173 7 gusting 10 6.7
2019-Dec-08 20:31 174 6 gusting 10 6.7
2019-Dec-08 20:26 181 6 gusting 10 6.7
2019-Dec-08 20:21 172 7 gusting 10 6.7
2019-Dec-08 20:16 170 7 gusting 10 7.2
2019-Dec-08 20:11 182 6 gusting 13 7.2
2019-Dec-08 20:06 177 6 gusting 13 7.2
2019-Dec-08 20:01 173 6 gusting 10 7.2
2019-Dec-08 19:56 180 5 gusting 10 7.2
2019-Dec-08 19:51 180 5 gusting 9 7.2
2019-Dec-08 19:46 186 5 gusting 13 7.8
2019-Dec-08 19:41 173 8 gusting 13 7.8
2019-Dec-08 19:36 173 6 gusting 10 7.8
2019-Dec-08 19:31 181 7 gusting 10 7.8
2019-Dec-08 19:26 180 6 gusting 10 7.8
2019-Dec-08 19:21 184 5 gusting 12 7.2
2019-Dec-08 19:16 178 6 gusting 12 7.2
2019-Dec-08 19:11 172 6 gusting 11 7.2
2019-Dec-08 19:06 170 6 gusting 10 7.2
2019-Dec-08 19:01 175 6 gusting 9 7.2
2019-Dec-08 18:56 177 6 gusting 10 7.2
2019-Dec-08 18:51 170 6 gusting 10 7.2
2019-Dec-08 18:46 181 5 gusting 10 7.2
2019-Dec-08 18:41 180 5 gusting 10 7.2
2019-Dec-08 18:36 174 6 gusting 11 7.2
2019-Dec-08 18:31 170 6 gusting 11 7.2
2019-Dec-08 18:26 179 7 gusting 11 7.2
2019-Dec-08 18:21 166 6 gusting 11 7.2
2019-Dec-08 18:16 173 7 gusting 10 6.7
2019-Dec-08 18:11 170 6 gusting 10 6.7
2019-Dec-08 18:06 150 6 gusting 11 6.7
2019-Dec-08 18:01 159 7 gusting 11 6.7
2019-Dec-08 17:56 164 6 gusting 10 7.2
2019-Dec-08 17:51 169 6 gusting 10 6.7
2019-Dec-08 17:46 159 6 gusting 13 6.7
2019-Dec-08 17:41 159 6 gusting 13 6.1
2019-Dec-08 17:36 145 6 gusting 11 6.1
2019-Dec-08 17:31 147 7 gusting 13 6.1
2019-Dec-08 17:26 155 6 gusting 13 6.1
2019-Dec-08 17:21 164 6 gusting 11 6.1
2019-Dec-08 17:16 148 6 gusting 11 6.1
2019-Dec-08 17:11 142 7 gusting 11 6.1
2019-Dec-08 17:06 150 6 gusting 12 6.1
2019-Dec-08 17:01 151 7 gusting 12 6.1
2019-Dec-08 16:56 150 8 gusting 12 6.1
2019-Dec-08 16:51 145 6 gusting 12 6.1
2019-Dec-08 16:46 136 9 gusting 12 6.1
2019-Dec-08 16:41 141 9 gusting 12 6.1
2019-Dec-08 16:36 147 7 gusting 10 6.1
2019-Dec-08 16:31 139 7 gusting 11 6.1
2019-Dec-08 16:26 141 8 gusting 11 6.1
2019-Dec-08 16:21 157 6 gusting 11 6.1
2019-Dec-08 16:16 133 7 gusting 12 5.6
2019-Dec-08 16:11 130 7 gusting 13 5.6
2019-Dec-08 16:06 139 7 gusting 13 5.6
2019-Dec-08 16:01 131 8 gusting 12 5.6
2019-Dec-08 15:56 125 8 gusting 12 5.6
2019-Dec-08 15:51 123 8 gusting 10 6.1
2019-Dec-08 15:46 131 6 gusting 9 6.1
2019-Dec-08 15:41 125 6 gusting 10 5.6
2019-Dec-08 15:36 114 7 gusting 10 6.1
2019-Dec-08 15:31 125 6 gusting 9 5.6
2019-Dec-08 15:21 133 7 gusting 8 5.6
2019-Dec-08 15:16 134 6 gusting 8 5.6
2019-Dec-08 15:11 130 4 gusting 6 5.6
2019-Dec-08 15:06 128 4 gusting 8 5.6
2019-Dec-08 15:01 120 5 gusting 9 5.6
2019-Dec-08 14:56 120 6 gusting 9 5.6
2019-Dec-08 14:51 115 3 gusting 9 5.0
2019-Dec-08 14:46 109 5 gusting 9 5.0
2019-Dec-08 14:41 089 5 gusting 9 5.0
2019-Dec-08 14:36 110 3 gusting 6 5.0
2019-Dec-08 14:31 095 3 gusting 8 4.4
2019-Dec-08 14:26 085 5 gusting 8 4.4
2019-Dec-08 14:21 100 4 gusting 7 3.9
2019-Dec-08 14:16 080 1 gusting 6 3.9
2019-Dec-08 14:11 093 3 gusting 6 3.3
2019-Dec-08 14:06 042 1 gusting 4 3.3
2019-Dec-08 14:01 023 2 gusting 4 3.3
2019-Dec-08 13:56 090 0 gusting 4 3.3
2019-Dec-08 13:51 032 1 gusting 4 2.8
2019-Dec-08 13:46 023 1 gusting 3 2.8
2019-Dec-08 13:41 016 0 gusting 3 2.2
2019-Dec-08 13:36 016 1 gusting 3 2.2
2019-Dec-08 13:31 348 2 gusting 3 1.7
2019-Dec-08 13:26 005 0 gusting 3 1.7
2019-Dec-08 13:21 020 1 gusting 3 1.7
2019-Dec-08 13:16 011 1 gusting 3 1.7
2019-Dec-08 13:11 028 1 gusting 3 1.7
2019-Dec-08 13:06 020 1 gusting 3 1.1
2019-Dec-08 13:01 028 1 gusting 3 0.6
2019-Dec-08 12:56 030 1 gusting 2 0.6
2019-Dec-08 12:51 028 1 gusting 4 0.6
2019-Dec-08 12:46 028 1 gusting 4 -0.0
2019-Dec-08 12:41 020 2 gusting 6 -0.0
2019-Dec-08 12:36 022 3 gusting 6 -0.0
2019-Dec-08 12:31 026 3 gusting 6 -0.0
2019-Dec-08 12:26 015 3 gusting 6 -0.6
2019-Dec-08 12:21 023 3 gusting 6 -0.6
2019-Dec-08 12:16 015 3 gusting 6 -0.6
2019-Dec-08 12:11 017 2 gusting 4 -0.6
2019-Dec-08 12:06 013 2 gusting 4 -0.6
2019-Dec-08 12:01 009 3 gusting 4 -0.6
2019-Dec-08 11:56 031 2 gusting 4 -0.6
2019-Dec-08 11:51 013 3 gusting 6 -0.6
2019-Dec-08 11:46 026 2 gusting 6 -0.6
2019-Dec-08 11:41 010 3 gusting 6 -0.6
2019-Dec-08 11:36 015 2 gusting 4 -1.1
2019-Dec-08 11:31 014 3 gusting 4 -1.1
2019-Dec-08 11:26 031 2 gusting 6 -0.6
2019-Dec-08 11:21 004 3 gusting 6 -0.6
2019-Dec-08 11:16 030 3 gusting 6 -0.6
2019-Dec-08 11:11 007 3 gusting 6 -0.6
2019-Dec-08 11:06 029 3 gusting 6 -0.6
2019-Dec-08 11:01 009 3 gusting 6 -0.6
2019-Dec-08 10:56 020 3 gusting 4 -0.6
2019-Dec-08 10:51 012 2 gusting 6 -1.1
2019-Dec-08 10:46 019 3 gusting 6 -1.1
2019-Dec-08 10:41 019 2 gusting 4 -0.6
2019-Dec-08 10:36 023 2 gusting 6 -0.6
2019-Dec-08 10:31 013 3 gusting 6 -0.6
2019-Dec-08 10:26 007 3 gusting 4 -0.6
2019-Dec-08 10:21 018 2 gusting 6 -0.6
2019-Dec-08 10:16 017 3 gusting 6 -0.6
2019-Dec-08 10:11 021 3 gusting 7 -0.6
2019-Dec-08 10:06 022 3 gusting 7 -0.6
2019-Dec-08 10:01 014 2 gusting 6 -0.6
2019-Dec-08 09:56 019 3 gusting 6 -0.6
2019-Dec-08 09:51 020 3 gusting 6 -0.6
2019-Dec-08 09:46 010 3 gusting 6 -0.6
2019-Dec-08 09:41 016 4 gusting 7 -1.1
2019-Dec-08 09:36 013 4 gusting 7 -1.1
2019-Dec-08 09:31 021 3 gusting 6 -1.1
2019-Dec-08 09:26 010 3 gusting 6 -1.1
2019-Dec-08 09:21 013 3 gusting 6 -1.1
2019-Dec-08 09:16 014 3 gusting 6 -1.1
2019-Dec-08 09:11 003 2 gusting 6 -1.1
2019-Dec-08 09:06 012 3 gusting 7 -1.1
2019-Dec-08 08:56 010 3 gusting 6 -0.6
2019-Dec-08 08:51 009 3 gusting 7 -0.6
2019-Dec-08 08:46 011 3 gusting 7 -0.6
2019-Dec-08 08:41 007 3 gusting 6 -0.6
2019-Dec-08 08:36 358 3 gusting 7 -0.6
2019-Dec-08 08:31 352 4 gusting 7 -0.6
2019-Dec-08 08:26 001 4 gusting 7 -0.6
2019-Dec-08 08:21 004 4 gusting 7 -0.6
2019-Dec-08 08:16 011 4 gusting 7 -0.6
2019-Dec-08 08:11 003 4 gusting 7 -0.6
2019-Dec-08 08:06 004 4 gusting 7 -0.6
2019-Dec-08 08:01 001 4 gusting 7 -0.6
2019-Dec-08 07:56 008 3 gusting 6 -0.6
2019-Dec-08 07:51 008 3 gusting 7 -0.6
2019-Dec-08 07:46 010 3 gusting 7 -0.0
2019-Dec-08 07:41 006 4 gusting 7 -0.0
2019-Dec-08 07:36 003 3 gusting 6 -0.0
2019-Dec-08 07:31 002 3 gusting 6 -0.0
2019-Dec-08 07:26 011 3 gusting 6 -0.0
2019-Dec-08 07:21 021 4 gusting 6 0.6
2019-Dec-08 07:16 012 3 gusting 6 -0.0
2019-Dec-08 07:11 019 3 gusting 6 -0.0
2019-Dec-08 07:06 016 3 gusting 6 -0.0
2019-Dec-08 07:01 018 3 gusting 6 -0.0
2019-Dec-08 06:56 007 2 gusting 6 -0.0
2019-Dec-08 06:51 025 2 gusting 6 0.6
2019-Dec-08 06:46 026 3 gusting 6 0.6
2019-Dec-08 06:41 009 3 gusting 6 0.6
2019-Dec-08 06:36 008 2 gusting 7 0.6
2019-Dec-08 06:31 019 3 gusting 11 0.6
2019-Dec-08 06:26 029 6 gusting 11 0.6
2019-Dec-08 06:21 028 5 gusting 9 0.6
2019-Dec-08 06:16 023 3 gusting 11 0.6
2019-Dec-08 06:11 021 5 gusting 12 0.6
2019-Dec-08 06:06 028 6 gusting 12 0.6
2019-Dec-08 06:01 028 4 gusting 10 0.6
2019-Dec-08 05:56 018 5 gusting 10 0.6
2019-Dec-08 05:51 029 5 gusting 10 0.6
2019-Dec-08 05:46 026 6 gusting 11 0.6
2019-Dec-08 05:41 025 6 gusting 11 0.6
2019-Dec-08 05:36 020 6 gusting 14 0.6
2019-Dec-08 05:31 021 6 gusting 14 0.6
2019-Dec-08 05:26 027 5 gusting 11 0.6
2019-Dec-08 05:21 020 5 gusting 11 0.6
2019-Dec-08 05:16 020 6 gusting 9 0.6
2019-Dec-08 05:11 018 5 gusting 8 0.6
2019-Dec-08 05:06 019 5 gusting 10 0.6
2019-Dec-08 05:01 020 6 gusting 10 0.6
2019-Dec-08 04:56 017 5 gusting 10 0.6
2019-Dec-08 04:51 016 5 gusting 10 0.6
2019-Dec-08 04:46 015 3 gusting 9 0.6
2019-Dec-08 04:41 019 6 gusting 10 0.6
2019-Dec-08 04:36 019 6 gusting 10 0.6
2019-Dec-08 04:31 015 5 gusting 8 0.6
2019-Dec-08 04:26 018 4 gusting 9 0.6
2019-Dec-08 04:21 021 5 gusting 9 0.6
2019-Dec-08 04:16 013 5 gusting 9 0.6
2019-Dec-08 04:11 016 6 gusting 9 0.6
2019-Dec-08 04:06 019 5 gusting 9 0.6
2019-Dec-08 04:01 017 5 gusting 9 0.6
2019-Dec-08 03:56 023 5 gusting 9 0.6
2019-Dec-08 03:51 015 6 gusting 8 0.6
2019-Dec-08 03:46 017 4 gusting 7 0.6
2019-Dec-08 03:41 016 3 gusting 9 0.6
2019-Dec-08 03:36 015 3 gusting 10 0.6
2019-Dec-08 03:31 007 3 gusting 10 0.6
2019-Dec-08 03:26 009 4 gusting 6 0.6
2019-Dec-08 03:21 005 3 gusting 8 0.6
2019-Dec-08 03:16 007 5 gusting 8 0.6
2019-Dec-08 03:11 016 5 gusting 8 0.6
2019-Dec-08 03:06 017 5 gusting 7 0.6
2019-Dec-08 03:01 012 4 gusting 7 0.6
2019-Dec-08 02:56 005 4 gusting 7 0.6
2019-Dec-08 02:51 013 4 gusting 7 0.6
2019-Dec-08 02:46 016 3 gusting 9 0.6
2019-Dec-08 02:41 015 4 gusting 9 0.6
2019-Dec-08 02:36 019 4 gusting 8 1.1
2019-Dec-08 02:31 012 4 gusting 8 1.1
2019-Dec-08 02:26 007 4 gusting 8 1.1
2019-Dec-08 02:21 012 5 gusting 9 1.1
2019-Dec-08 02:16 009 4 gusting 9 1.7
2019-Dec-08 02:11 356 5 gusting 8 1.7
2019-Dec-08 02:06 354 5 gusting 7 1.7
2019-Dec-08 02:01 357 5 gusting 8 1.7
2019-Dec-08 01:56 358 6 gusting 8 1.7
2019-Dec-08 01:51 349 3 gusting 6 1.7
2019-Dec-08 01:46 350 3 gusting 7 1.7
2019-Dec-08 01:41 347 4 gusting 7 2.2
2019-Dec-08 01:36 348 6 gusting 7 2.2
2019-Dec-08 01:31 346 5 gusting 7 2.2
2019-Dec-08 01:26 343 5 gusting 7 2.2
2019-Dec-08 01:21 329 2 gusting 4 1.7
2019-Dec-08 01:16 315 2 gusting 4 1.7
2019-Dec-08 01:11 316 1 gusting 4 2.2
2019-Dec-08 01:06 321 2 gusting 4 2.2
2019-Dec-08 01:01 319 2 gusting 3 2.2
2019-Dec-08 00:56 328 1 gusting 4 2.2
2019-Dec-08 00:51 325 1 gusting 4 2.2
2019-Dec-08 00:46 323 2 gusting 4 2.2
2019-Dec-08 00:41 323 2 gusting 4 2.2
2019-Dec-08 00:36 323 2 gusting 4 2.2
2019-Dec-08 00:31 319 1 gusting 4 2.2
2019-Dec-08 00:26 324 3 gusting 4 2.8
2019-Dec-08 00:21 322 2 gusting 5 2.8
2019-Dec-08 00:16 326 3 gusting 5 2.8
2019-Dec-08 00:11 323 2 gusting 5 2.8
2019-Dec-08 00:06 327 3 gusting 5 2.8
2019-Dec-08 00:01 332 3 gusting 5 2.8
2019-Dec-07 23:56 328 3 gusting 5 2.8
2019-Dec-07 23:51 329 4 gusting 6 2.8
2019-Dec-07 23:46 327 3 gusting 6 2.8
2019-Dec-07 23:41 333 3 gusting 6 2.8
2019-Dec-07 23:36 336 3 gusting 5 2.8
2019-Dec-07 23:31 343 3 gusting 5 2.2
2019-Dec-07 23:26 353 2 gusting 6 2.8
2019-Dec-07 23:21 352 4 gusting 7 2.8
2019-Dec-07 23:16 349 6 gusting 8 2.8
2019-Dec-07 23:11 343 6 gusting 9 2.8
2019-Dec-07 23:06 345 6 gusting 9 2.8
2019-Dec-07 23:01 345 7 gusting 10 2.8
2019-Dec-07 22:56 344 6 gusting 10 2.8
2019-Dec-07 22:51 347 6 gusting 9 2.8
2019-Dec-07 22:46 340 6 gusting 9 2.8
2019-Dec-07 22:41 340 6 gusting 9 2.8
2019-Dec-07 22:36 340 6 gusting 9 2.8
2019-Dec-07 22:31 332 6 gusting 9 2.8
2019-Dec-07 22:26 331 6 gusting 9 2.8
2019-Dec-07 22:21 346 4 gusting 7 2.8
2019-Dec-07 22:16 330 6 gusting 7 2.8
2019-Dec-07 22:11 339 5 gusting 8 2.8
2019-Dec-07 22:06 334 5 gusting 8 2.8
2019-Dec-07 22:01 337 6 gusting 8 3.3
2019-Dec-07 21:56 340 5 gusting 9 3.3
2019-Dec-07 21:51 342 6 gusting 9 3.3
2019-Dec-07 21:46 333 6 gusting 11 3.3
2019-Dec-07 21:41 336 6 gusting 11 3.3
2019-Dec-07 21:36 344 8 gusting 12 3.3
2019-Dec-07 21:31 345 9 gusting 13 3.3
2019-Dec-07 21:26 347 10 gusting 13 3.3
2019-Dec-07 21:21 347 10 gusting 13 3.3
2019-Dec-07 21:16 349 12 gusting 14 3.9
2019-Dec-07 21:11 346 11 gusting 14 3.9
2019-Dec-07 21:06 347 10 gusting 13 3.9
2019-Dec-07 21:01 342 10 gusting 13 3.9
2019-Dec-07 20:56 347 10 gusting 13 3.9
2019-Dec-07 20:51 343 11 gusting 13 4.4
2019-Dec-07 20:46 348 10 gusting 13 4.4
2019-Dec-07 20:41 344 7 gusting 13 4.4
2019-Dec-07 20:36 346 6 gusting 13 4.4
2019-Dec-07 20:31 343 10 gusting 13 3.9
2019-Dec-07 20:26 338 9 gusting 12 3.9
2019-Dec-07 20:21 340 7 gusting 10 3.9
2019-Dec-07 20:16 333 5 gusting 9 3.9
2019-Dec-07 20:11 322 4 gusting 13 3.9
2019-Dec-07 20:06 334 9 gusting 13 3.9
2019-Dec-07 20:01 336 6 gusting 11 3.9
2019-Dec-07 19:56 325 4 gusting 10 3.9
2019-Dec-07 19:51 326 5 gusting 9 3.9
2019-Dec-07 19:46 339 5 gusting 12 4.4
2019-Dec-07 19:41 327 7 gusting 12 4.4
2019-Dec-07 19:36 335 6 gusting 10 4.4
2019-Dec-07 19:31 324 6 gusting 12 4.4
2019-Dec-07 19:26 332 9 gusting 12 4.4
2019-Dec-07 19:21 333 8 gusting 14 4.4
2019-Dec-07 19:16 324 7 gusting 14 4.4
2019-Dec-07 19:11 334 9 gusting 13 4.4
2019-Dec-07 19:06 332 6 gusting 10 4.4
2019-Dec-07 19:01 330 4 gusting 11 4.4
2019-Dec-07 18:56 321 6 gusting 13 3.9
2019-Dec-07 18:51 344 9 gusting 13 3.9
2019-Dec-07 18:46 345 9 gusting 13 3.9
2019-Dec-07 18:41 334 8 gusting 13 3.9
2019-Dec-07 18:36 334 8 gusting 13 3.9
2019-Dec-07 18:31 339 8 gusting 12 3.9
2019-Dec-07 18:26 344 8 gusting 12 3.9
2019-Dec-07 18:21 329 7 gusting 12 3.9
2019-Dec-07 18:16 331 6 gusting 13 3.9
2019-Dec-07 18:11 346 10 gusting 13 3.3
2019-Dec-07 18:06 342 9 gusting 13 3.3
2019-Dec-07 18:01 334 9 gusting 13 3.3
2019-Dec-07 17:56 333 7 gusting 13 3.3
2019-Dec-07 17:51 330 10 gusting 15 3.3
2019-Dec-07 17:46 342 11 gusting 16 3.3
2019-Dec-07 17:41 337 11 gusting 16 3.3
2019-Dec-07 17:36 341 9 gusting 13 3.3
2019-Dec-07 17:31 337 11 gusting 15 3.3
2019-Dec-07 17:26 344 12 gusting 15 3.3
2019-Dec-07 17:21 345 11 gusting 15 3.3
2019-Dec-07 17:16 339 9 gusting 13 3.3
2019-Dec-07 17:11 338 8 gusting 13 3.3
2019-Dec-07 17:06 342 9 gusting 13 3.3
2019-Dec-07 17:01 336 10 gusting 13 3.3